Location: Newark
(54.2500°N, 9.1833°E)
Time: 15:47:25
(UTC+00:00)

A-11 Canister half - Pass Details

Date: 11 December 2019
Orbit: 1516 x 1683 km, 47.2° (Epoch: 18 January)

Event Time Altitude Azimuth Distance (km) Brightness Sun altitude
Rises 17:56:07 0° 285° (WNW) 4,883 12.8 -24.2°
Reaches altitude 10° 17:59:59 10° 273° (W) 3,914 12.2 -24.8°
Maximum altitude 18:07:24 24° 224° (SW) 2,960 10.9 -25.8°
Drops below altitude 10° 18:14:53 10° 176° (S) 3,940 11.1 -26.9°
Sets 18:18:50 0° 164° (SSE) 4,922 11.5 -27.5°
